Location: Munkebjergskolens Observatorium
(55.3864°N, 10.3987°E)
Time: 04:19:49
(UTC+02:00)

CAS-6 - Pass Details

Date: 31 March 2023
Orbit: 610 x 632 km, 97.9° (Epoch: 31 May)

Event Time Altitude Azimuth Distance (km) Brightness Sun altitude
Exits shadow 21:42:18 15° 76° (ENE) 1,674 ? -15.2°
Maximum altitude 21:43:38 17° 54° (NE) 1,575 ? -15.4°
Drops below altitude 10° 21:46:29 10° 13° (NNE) 2,013 ? -15.7°
Sets 21:49:18 0° 354° (N) 2,930 ? -16.1°
